User: anonymous
Location: Fort Wayne
(41.1310°N, 85.1290°W)
Time: 05:04:30
(UTC-04:00)
Language:

COSMOS 2428 - Orbit

View from above orbital plane
View from above orbital plane
View from above satellite
View from above satellite

Ground track
Ground track

The orbit data is extracted from the following two-line orbital elements,

1 31792U 07029A   14211.18297630  .00000324  00000-0  20147-3 0  8530
2 31792 070.9614 099.4388 0005870 065.8502 089.3895 14.12382375365381
Epoch (UTC): 30 July 2014 04:23:29
Eccentricity: 0.0005870
inclination: 70.9614°
perigee height: 847 km
apogee height: 855 km
right ascension of ascending node: 99.4388°
argument of perigee: 65.8502°
revolutions per day: 14.12382375
mean anomaly at epoch: 89.3895°
orbit number at epoch: 36538

The dashed part of the orbit path shows where the satellite is in the earth's shadow,  

DLR